Location: Gro�bocka
(50.8204°N, 11.9702°E)
Time: 14:31:28
(UTC+00:00)

Cosmos 1417 Rocket - Pass Details

Date: 29 October 2020
Orbit: 952 x 998 km, 83.0° (Epoch: 28 November)

Event Time Altitude Azimuth Distance (km) Brightness Sun altitude
Rises 17:24:17 0° 181° (S) 3,665 7.6 -15.1°
Reaches altitude 10° 17:26:47 10° 179° (S) 2,728 6.9 -15.5°
Maximum altitude 17:33:01 75° 96° (E) 1,029 4.4 -16.5°
Drops below altitude 10° 17:39:22 10° 13° (NNE) 2,773 6.7 -17.5°
Sets 17:41:55 0° 11° (NNE) 3,730 7.4 -17.9°
